カタログに戻る

COSMOS 2251 DEB

運用中LEO
NORAD 35987·DEBRIS·🇷🇺 Russia

打ち上げ Jun 16, 1993 から Plesetsk Cosmodrome

Loading…

次のパス (今後24時間)

TLE

最新Source: Space-Track

元期: Sep 13, 2026, 11:00 UTC

1 35987U 93036AWD 26256.45865287  .00001592  00000-0  46185-3 0  9993
2 35987  73.9987 174.5779 0049580 235.3376 124.3103 14.44532480650305

AllMySatでCOSMOS 2251 DEBをリアルタイム追跡

Download on the App Store